| time (UTC) | temp F | wind direction | speed MPH | gust MPH | rain 1hr in | rain 24hr in | rain mn in | humidity % | barometer mb |
| 20260904143017 | 41 | 138 | 0.0 | 0.0 | 0.00 | 0.43 | 0.00 | 98 | 1014.9 |
| 20260904141515 | 38 | 148 | 0.0 | 0.0 | 0.00 | 0.43 | 0.00 | 98 | 1014.7 |
| 20260904140011 | 38 | 148 | 0.0 | 0.0 | 0.00 | 0.43 | 0.00 | 98 | 1014.5 |
| 20260904134509 | 38 | 130 | 0.0 | 1.0 | 0.00 | 0.43 | 0.00 | 98 | 1014.3 |
| 20260904133008 | 38 | 111 | 0.0 | 0.0 | 0.00 | 0.43 | 0.00 | 98 | 1014.1 |
| 20260904131503 | 38 | 128 | 0.0 | 0.0 | 0.00 | 0.43 | 0.00 | 98 | 1014.0 |
| 20260904130001 | 38 | 139 | 0.0 | 0.0 | 0.00 | 0.43 | 0.00 | 98 | 1013.8 |
| 20260904124600 | 39 | 139 | 0.0 | 1.0 | 0.00 | 0.44 | 0.00 | 98 | 1013.6 |
| 20260904123057 | 39 | 83 | 0.0 | 1.0 | 0.00 | 0.44 | 0.00 | 98 | 1013.5 |
| 20260904121552 | 40 | 148 | 0.0 | 0.0 | 0.00 | 0.44 | 0.00 | 98 | 1013.4 |
| 20260904120106 | 40 | 113 | 0.0 | 0.0 | 0.00 | 0.44 | 0.00 | 98 | 1013.3 |
| 20260904114550 | 41 | 146 | 0.0 | 0.0 | 0.00 | 0.61 | 0.00 | 98 | 1013.5 |
| 20260904113048 | 40 | 67 | 0.0 | 1.0 | 0.00 | 0.61 | 0.00 | 98 | 1013.0 |
| 20260904111545 | 40 | 63 | 0.0 | 0.0 | 0.00 | 0.61 | 0.00 | 98 | 1013.0 |
| 20260904110046 | 41 | 63 | 0.0 | 0.0 | 0.00 | 0.61 | 0.00 | 98 | 1012.9 |
| 20260904104545 | 41 | 61 | 0.0 | 0.0 | 0.00 | 0.74 | 0.00 | 98 | 1013.1 |
| 20260904103044 | 41 | 69 | 0.0 | 0.0 | 0.00 | 0.74 | 0.00 | 98 | 1013.2 |
| 20260904101543 | 41 | 133 | 0.0 | 0.0 | 0.00 | 0.74 | 0.00 | 98 | 1012.8 |
| 20260904100044 | 41 | 132 | 0.0 | 0.0 | 0.00 | 0.74 | 0.00 | 98 | 1012.6 |
| 20260904094539 | 41 | 183 | 0.0 | 1.0 | 0.00 | 0.74 | 0.00 | 98 | 1013.1 |
| 20260904093054 | 40 | 143 | 0.0 | 0.0 | 0.00 | 0.74 | 0.00 | 98 | 1012.8 |
| 20260904091535 | 40 | 137 | 0.0 | 1.0 | 0.00 | 0.74 | 0.00 | 98 | 1012.8 |
| 20260904090003 | 41 | 133 | 0.0 | 0.0 | 0.00 | 0.74 | 0.00 | 98 | 1012.6 |
| 20260904084502 | 41 | 128 | 0.0 | 0.0 | 0.00 | 0.74 | 0.00 | 98 | 1012.3 |
| 20260904083031 | 41 | 118 | 0.0 | 1.0 | 0.00 | 0.74 | 0.00 | 98 | 1012.3 |
| 20260904081529 | 41 | 151 | 0.0 | 0.0 | 0.00 | 0.74 | 0.00 | 98 | 1012.0 |
| 20260904080026 | 41 | 118 | 0.0 | 0.0 | 0.00 | 0.74 | 0.00 | 98 | 1012.3 |
| 20260904074524 | 41 | 118 | 0.0 | 0.0 | 0.00 | 0.77 | 0.74 | 97 | 1012.2 |
| 20260904073045 | 42 | 117 | 0.0 | 0.0 | 0.00 | 0.77 | 0.74 | 97 | 1012.5 |
| 20260904071519 | 43 | 117 | 0.0 | 0.0 | 0.00 | 0.77 | 0.74 | 97 | 1012.2 |
| 20260904070017 | 43 | 117 | 0.0 | 0.0 | 0.00 | 0.77 | 0.74 | 97 | 1012.2 |
| 20260904064518 | 43 | 134 | 0.0 | 1.0 | 0.00 | 0.81 | 0.74 | 97 | 1012.3 |
| 20260904063013 | 44 | 133 | 0.0 | 1.0 | 0.00 | 0.81 | 0.74 | 97 | 1012.2 |
| 20260904061513 | 44 | 13 | 0.0 | 0.0 | 0.00 | 0.81 | 0.74 | 97 | 1012.0 |
| 20260904060010 | 44 | 336 | 0.0 | 1.0 | 0.00 | 0.81 | 0.74 | 97 | 1012.2 |
| 20260904054512 | 44 | 325 | 0.0 | 2.0 | 0.01 | 0.85 | 0.74 | 97 | 1011.6 |
| 20260904053008 | 43 | 154 | 0.0 | 0.0 | 0.03 | 0.85 | 0.74 | 97 | 1012.1 |
| 20260904051510 | 43 | 153 | 0.0 | 0.0 | 0.05 | 0.85 | 0.74 | 96 | 1011.3 |
| 20260904050005 | 43 | 107 | 0.0 | 2.0 | 0.08 | 0.85 | 0.74 | 95 | 1011.5 |
| 20260904044507 | 44 | 144 | 0.0 | 2.0 | 0.11 | 0.87 | 0.73 | 95 | 1012.1 |
| 20260904043003 | 44 | 150 | 0.0 | 1.0 | 0.11 | 0.85 | 0.71 | 96 | 1012.7 |
| 20260904041501 | 44 | 115 | 0.0 | 3.0 | 0.11 | 0.83 | 0.69 | 95 | 1012.7 |
| 20260904040058 | 45 | 124 | 0.0 | 1.0 | 0.09 | 0.80 | 0.66 | 95 | 1012.7 |
| 20260904034602 | 45 | 159 | 0.0 | 1.0 | 0.06 | 0.78 | 0.62 | 95 | 1012.7 |
| 20260904033104 | 45 | 135 | 0.0 | 1.0 | 0.06 | 0.76 | 0.60 | 95 | 1012.5 |
| 20260904031554 | 45 | 140 | 0.0 | 2.0 | 0.06 | 0.74 | 0.57 | 95 | 1012.7 |
| 20260904030051 | 46 | 146 | 0.0 | 1.0 | 0.07 | 0.73 | 0.56 | 95 | 1012.3 |
| 20260904024551 | 46 | 117 | 0.0 | 0.0 | 0.06 | 0.72 | 0.56 | 95 | 1012.3 |
| 20260904023050 | 46 | 105 | 0.0 | 1.0 | 0.05 | 0.70 | 0.54 | 94 | 1012.4 |
| 20260904021549 | 46 | 150 | 0.0 | 2.0 | 0.04 | 0.68 | 0.52 | 94 | 1012.1 |
| 20260904020058 | 47 | 133 | 0.0 | 2.0 | 0.05 | 0.66 | 0.50 | 94 | 1012.0 |
| 20260904014615 | 47 | 114 | 0.0 | 3.0 | 0.07 | 0.66 | 0.50 | 94 | 1012.0 |
| 20260904013042 | 47 | 113 | 0.0 | 0.0 | 0.07 | 0.65 | 0.49 | 94 | 1012.0 |
| 20260904011541 | 47 | 137 | 0.0 | 1.0 | 0.07 | 0.64 | 0.48 | 94 | 1012.1 |
| 20260904010038 | 48 | 132 | 0.0 | 5.0 | 0.05 | 0.61 | 0.45 | 93 | 1012.3 |
| 20260904004537 | 48 | 144 | 0.0 | 2.0 | 0.05 | 0.59 | 0.43 | 94 | 1012.1 |
| 20260904003046 | 48 | 140 | 0.0 | 1.0 | 0.05 | 0.57 | 0.42 | 93 | 1012.1 |
| 20260904001536 | 49 | 149 | 0.0 | 1.0 | 0.04 | 0.56 | 0.41 | 93 | 1012.1 |
| 20260904000034 | 49 | 150 | 0.0 | 1.0 | 0.04 | 0.56 | 0.40 | 91 | 1012.1 |
| 20260903234533 | 50 | 118 | 0.0 | 2.0 | 0.03 | 0.54 | 0.38 | 89 | 1012.2 |
| 20260903233037 | 50 | 138 | 0.0 | 1.0 | 0.03 | 0.53 | 0.37 | 89 | 1012.2 |
| 20260903231533 | 50 | 109 | 0.0 | 1.0 | 0.05 | 0.53 | 0.37 | 89 | 1012.2 |
| 20260903230046 | 51 | 83 | 0.0 | 3.0 | 0.05 | 0.52 | 0.36 | 87 | 1012.2 |
| 20260903224531 | 51 | 101 | 0.0 | 1.0 | 0.04 | 0.51 | 0.35 | 86 | 1012.1 |
| 20260903223029 | 53 | 143 | 0.0 | 3.0 | 0.03 | 0.50 | 0.34 | 76 | 1011.8 |
| 20260903221529 | 57 | 203 | 1.0 | 10.0 | 0.01 | 0.48 | 0.32 | 60 | 1011.7 |
| 20260903220025 | 58 | 259 | 0.0 | 8.0 | 0.00 | 0.47 | 0.31 | 52 | 1011.1 |
| 20260903214537 | 58 | 150 | 0.0 | 1.0 | 0.00 | 0.47 | 0.31 | 66 | 1011.2 |
| 20260903213023 | 58 | 91 | 0.0 | 1.0 | 0.00 | 0.47 | 0.31 | 65 | 1011.1 |
| 20260903211522 | 60 | 142 | 0.0 | 8.0 | 0.00 | 0.47 | 0.31 | 55 | 1011.2 |
| 20260903210020 | 62 | 242 | 0.0 | 1.0 | 0.00 | 0.47 | 0.31 | 59 | 1011.2 |
| 20260903204524 | 62 | 146 | 0.0 | 2.0 | 0.00 | 0.47 | 0.31 | 58 | 1011.0 |
| 20260903203018 | 62 | 203 | 0.0 | 5.0 | 0.00 | 0.47 | 0.31 | 56 | 1011.1 |
| 20260903201527 | 62 | 107 | 0.0 | 3.0 | 0.00 | 0.47 | 0.31 | 57 | 1011.2 |
| 20260903200016 | 63 | 130 | 0.0 | 3.0 | 0.00 | 0.47 | 0.31 | 57 | 1011.5 |
| 20260903194545 | 62 | 154 | 0.0 | 4.0 | 0.00 | 0.47 | 0.31 | 59 | 1011.5 |
| 20260903193042 | 62 | 240 | 0.0 | 2.0 | 0.00 | 0.47 | 0.31 | 72 | 1011.5 |
| 20260903191536 | 59 | 315 | 0.0 | 4.0 | 0.00 | 0.47 | 0.31 | 81 | 1011.6 |
| 20260903190040 | 58 | 336 | 0.0 | 3.0 | 0.00 | 0.47 | 0.31 | 93 | 1012.0 |
| 20260903184532 | 58 | 253 | 0.0 | 3.0 | 0.00 | 0.47 | 0.31 | 94 | 1012.1 |
| 20260903183029 | 57 | 281 | 0.0 | 2.0 | 0.00 | 0.47 | 0.31 | 96 | 1012.1 |
| 20260903181519 | 56 | 82 | 0.0 | 1.0 | 0.00 | 0.47 | 0.31 | 95 | 1012.3 |
| 20260903180041 | 55 | 313 | 0.0 | 1.0 | 0.00 | 0.47 | 0.31 | 94 | 1012.5 |
| 20260903174514 | 55 | 218 | 0.0 | 1.0 | 0.00 | 0.47 | 0.31 | 95 | 1012.7 |
| 20260903173012 | 54 | 122 | 0.0 | 0.0 | 0.00 | 0.47 | 0.31 | 96 | 1012.7 |
| 20260903171510 | 54 | 126 | 0.0 | 1.0 | 0.00 | 0.47 | 0.31 | 96 | 1012.8 |
| 20260903170004 | 53 | 225 | 0.0 | 2.0 | 0.00 | 0.47 | 0.31 | 97 | 1012.7 |
| 20260903164503 | 53 | 310 | 0.0 | 0.0 | 0.00 | 0.47 | 0.31 | 98 | 1012.7 |
| 20260903163003 | 52 | 322 | 0.0 | 0.0 | 0.00 | 0.47 | 0.31 | 98 | 1012.7 |
| 20260903161616 | 51 | 321 | 0.0 | 1.0 | 0.00 | 0.47 | 0.31 | 98 | 1012.8 |
| 20260903160058 | 51 | 290 | 0.0 | 0.0 | 0.00 | 0.47 | 0.31 | 98 | 1012.8 |
| 20260903154559 | 52 | 267 | 0.0 | 0.0 | 0.00 | 0.47 | 0.31 | 98 | 1012.8 |
| 20260903153057 | 51 | 311 | 0.0 | 2.0 | 0.00 | 0.47 | 0.31 | 98 | 1012.9 |
| 20260903151555 | 51 | 76 | 0.0 | 1.0 | 0.00 | 0.47 | 0.31 | 98 | 1012.9 |
| 20260903150053 | 50 | 165 | 0.0 | 0.0 | 0.00 | 0.47 | 0.31 | 98 | 1013.2 |
| 20260903144551 | 49 | 171 | 0.0 | 1.0 | 0.00 | 0.47 | 0.31 | 98 | 1013.1 |